Location: Ago
(8.4667°N, 4.4167°E)
Time: 05:59:32
(UTC+00:00)

Cosmos 2221 Rocket - Pass Details

Date: 06 June 2020
Orbit: 620 x 648 km, 82.5° (Epoch: 05 July)

Event Time Altitude Azimuth Distance (km) Brightness Sun altitude
Rises 18:34:57 0° 164° (SSE) 2,923 6.6 -8.9°
Reaches altitude 10° 18:37:25 10° 152° (SSE) 2,020 5.7 -9.5°
Maximum altitude 18:41:18 29° 92° (E) 1,173 4.5 -10.3°
Drops below altitude 10° 18:45:11 10° 33° (NNE) 2,031 6.1 -11.2°
Sets 18:47:40 0° 22° (NNE) 2,943 7.1 -11.8°
